Location: Gokavaram
(16.9752°N, 81.0696°E)
Time: 08:05:35
(UTC+00:00)

Daily predictions for brighter satellites

Satellite Brightness Start Highest point End
(mag) Time Altitude Azimuth Time Altitude Azimuth Time Altitude Azimuth
Cosmos 1452 Rocket 3.6 13:14:06 10° S 13:19:10 52° ESE 13:24:13 10° NNE
Cosmos 407 Rocket 4.0 13:16:50 10° NNW 13:21:53 64° WSW 13:27:00 10° S
COBE Rocket 4.0 13:17:30 10° N 13:22:32 85° W 13:27:24 10° SSW
Delta 202 4.1 13:19:26 10° W 13:24:43 49° SSW 13:29:56 10° ESE
Cosmos 1461 4.0 13:23:19 10° SSE 13:25:51 18° ESE 13:28:23 10° ENE
CZ-3 Stage 3 2.8 13:11:42 10° WSW 13:26:21 88° NNW 13:30:33 10° ENE
Okean 1 Rocket 3.8 13:22:50 10° SSE 13:26:40 31° E 13:30:32 10° NNE
Cosmos 1975 Rocket 2.9 13:22:27 10° N 13:26:44 80° E 13:31:00 10° S
IRS-P3 4.3 13:22:21 10° S 13:27:39 83° WSW 13:32:57 10° NNW
ARIANE 6 FM1 Upper Stage 2.7 13:26:16 10° NNW 13:30:14 74° WSW 13:34:14 10° SSE
Cosmos 2251 Rocket 3.6 13:26:50 10° N 13:32:05 59° ENE 13:37:18 10° SSE
Meteor 2-1 Rocket 4.3 13:31:49 10° S 13:37:27 59° E 13:42:58 10° NNE
Cosmos 2173 Rocket 4.2 13:34:29 10° SSE 13:40:15 45° E 13:46:04 10° NNE
H-10 deb 3.7 13:32:42 10° WSW 13:41:44 29° SSW 13:44:36 12° SE
Cosmos 1862 3.7 13:39:30 10° NNW 13:42:58 56° W 13:46:26 10° S
SPOT 5 4.2 13:42:57 14° ESE 13:44:50 18° ENE 13:47:42 10° NNE
SJ-6B 3.2 13:43:02 12° SE 13:45:52 33° ENE 13:49:01 10° NNE
Cosmos 2082 Rocket 2.1 13:42:11 10° S 13:47:50 74° ESE 13:53:31 10° NNE
YAOGAN 3 4.4 13:44:55 10° SSE 13:49:04 71° ENE 13:53:15 10° N
SAR-Lupe-1 4.1 13:53:00 10° S 13:56:32 78° WSW 14:00:04 10° NNW
Meteor 2-3 Rocket 4.5 13:54:37 10° NNE 13:59:39 32° E 14:02:38 20° SE
PSLV R/B 3.5 13:58:49 10° S 14:02:56 83° WSW 14:07:04 10° NNW
Cosmos 332 Rocket 3.7 14:00:17 10° N 14:04:59 69° ENE 14:08:26 18° SSE
Helios 1A Rocket 3.5 14:04:12 10° NE 14:05:58 23° ENE 14:05:58 23° ENE
ASTEX 1 3.7 14:07:21 20° SSE 14:10:26 47° E 14:15:10 10° N
ATLAS 3B R/B 3.6 14:04:16 10° N 14:10:45 32° ENE 14:13:45 24° E
Meteor 1-31 Rocket 4.5 14:13:51 16° NE 14:13:51 16° NE 14:15:11 10° NNE
Cosmos 1697 Rocket 2.8 14:09:23 10° N 14:14:50 52° ENE 14:17:27 29° SE
Meteor 1-27 4.1 14:12:12 10° S 14:17:50 67° E 14:23:24 10° NNE
Cosmos 1459 Rocket 4.1 14:12:27 10° S 14:18:44 80° W 14:24:56 10° N
Delta 2 Rocket 4.3 14:13:23 10° WNW 14:19:42 64° NNE 14:23:53 27° E
Sich 1 Rocket 4.4 14:16:49 10° SSW 14:21:02 51° W 14:25:15 10° N
BREEZE-M DEB (TANK) 2.3 14:18:19 10° NW 14:21:08 72° SW 14:21:08 72° SW
ERS-1 Rocket 4.2 14:24:44 23° ENE 14:24:44 23° ENE 14:28:15 10° NNE
Cosmos 1375 Rocket 4.4 14:18:06 10° SSW 14:24:26 78° ESE 14:30:55 10° NNE
Cosmos 1802 Rocket 3.9 14:21:24 10° S 14:27:38 86° E 14:33:48 10° N
SWIFT 2.4 14:26:00 10° WNW 14:28:58 41° N 14:29:03 40° N
GPS 2-15 Rocket1 3.1 14:25:06 10° WSW 14:29:51 60° SSE 14:30:39 51° ESE
COSMOS 2406 3.1 14:25:22 10° SSW 14:31:05 79° ESE 14:36:50 10° NNE
ATLAS 2A CENTAUR R/B 4.3 14:25:48 10° SW 14:31:48 58° SE 14:46:33 10° ENE
GPS 2-12 Rocket1 4.4 14:29:15 10° WSW 14:32:44 23° SSW 14:33:02 23° SSW
Delta 198 4.2 14:27:22 10° WSW 14:33:38 68° SSE 14:35:42 41° E
CSL-04 Rocket 3.6 14:32:04 36° SSE 14:34:18 70° ENE 14:39:44 10° N
Resurs 01 Rocket 4.0 14:31:37 10° SW 14:34:48 20° W 14:38:00 10° NW
Cosmos 1782 2.5 14:38:11 73° NW 14:38:11 73° NW 14:41:29 10° N
Cosmos 1536 Rocket 4.0 14:35:07 10° NNW 14:39:26 58° W 14:41:33 28° SSW
Cosmos 1992 Rocket 4.2 14:36:27 10° SSW 14:41:37 69° WNW 14:46:47 10° N
SL-4 R/B 2.0 14:40:00 10° NW 14:43:23 66° NNW 14:43:23 66° NNW
Cosmos 1980 Rocket 2.8 14:40:54 10° N 14:45:51 38° ENE 14:45:51 38° ENE
OAO 1 4.5 14:42:02 10° WSW 14:47:28 80° NNW 14:49:41 37° NE
Terra 3.0 14:49:55 29° NE 14:49:55 29° NE 14:52:43 10° N
Cosmos 2228 2.9 14:48:38 77° WNW 14:48:38 77° WNW 14:52:36 10° N
CZ-4B R/B 4.3 14:51:39 57° N 14:51:39 57° N 14:54:52 10° N
Cosmos 1455 Rocket 4.3 14:46:51 10° SSW 14:50:58 40° W 14:55:05 10° NNW
CZ-4 R/B 2.5 14:52:59 33° N 14:52:59 33° N 14:55:05 10° N
SEDSat Delta rocket 4.0 14:45:19 10° WSW 14:51:48 77° NNW 14:55:19 30° NE
Cosmos 2233 Rocket 3.8 14:48:48 32° S 14:51:55 83° E 14:58:06 10° N
Cosmos 968 Rocket 3.9 14:50:37 10° NNW 14:55:44 58° WSW 14:57:08 43° SSW
CZ-4B DEB 4.1 14:55:43 65° ENE 14:55:44 65° ENE 15:01:11 10° N
CZ-4B R/B 3.8 14:59:47 42° NE 14:59:47 42° NE 15:04:14 10° N
SL-08 R/B 3.3 14:55:35 10° N 15:00:07 77° NW 15:00:07 77° NW
Milstar 3 3.6 14:58:43 10° WNW 15:05:11 48° NNE 15:08:08 35° ENE
USA 215 3.1 15:07:42 68° ESE 15:08:29 78° NE 15:15:00 10° NNW
Longmarch 3A Rocket 4.0 15:03:59 10° WNW 15:09:39 22° NNW 15:10:37 20° N
ARIANE 5 R/B 4.3 14:48:58 10° W 15:15:57 40° SSW 15:16:34 39° S
Cosmos 1741 Rocket 4.5 15:14:57 10° NNW 15:19:34 57° WNW 15:19:34 57° WNW
Aureole 3 Rocket 4.3 15:19:55 55° SSW 15:21:29 75° W 15:29:51 10° N
Feng Yun 1-1 Rocket 4.5 15:22:28 62° WNW 15:22:28 62° WNW 15:27:12 10° NNW
ATLAS CENTAUR Rocket 3.2 15:26:49 10° WNW 15:29:01 36° W 15:29:01 36° W
ATLAS 3B R/B 4.0 15:55:00 10° NW 16:01:01 31° WSW 16:01:01 31° WSW
Atlas Centaur 2 4.3 20:33:35 27° N 20:33:35 27° N 20:39:19 10° NE
CZ-2D R/B 4.3 20:47:36 10° NNE 20:49:36 22° NE 20:49:36 22° NE
ATLAS 2AS CENTAUR R/B 4.1 21:14:32 10° N 21:20:33 33° ENE 21:26:39 10° SE
ADEOS II 3.3 21:28:55 10° N 21:31:56 36° N 21:31:56 36° N
Centaur D AC-25 3.9 21:46:53 26° ESE 21:46:53 26° ESE 21:48:47 10° E
Resurs 1-4 Rocket 3.9 21:44:09 10° NNW 21:46:01 20° NNW 21:46:01 20° NNW
Cosmos 2344 4.4 21:57:30 35° WNW 21:57:53 35° WNW 22:04:44 10° N
SEDSat Delta rocket 3.7 21:58:53 58° N 21:59:23 62° NNE 22:04:08 10° ESE
Cosmos 2154 Rocket 3.8 21:55:50 10° N 22:02:00 74° W 22:02:30 70° SW
Cosmos 2074 Rocket 4.0 21:56:49 10° NNW 22:02:32 60° WNW 22:02:32 60° WNW
USA 267 4.2 21:58:38 10° ENE 22:04:41 40° SE 22:07:45 26° S
OAO 3 Rocket 3.9 22:07:47 42° SE 22:07:47 42° SE 22:12:12 10° ENE
Cosmos 1943 Rocket 2.8 22:06:45 34° SSE 22:08:55 53° ESE 22:14:23 10° NNE
Cosmos 2184 Rocket 4.1 22:04:20 10° NNW 22:10:05 53° W 22:10:05 53° W
Cosmos 1241 Rocket 4.3 22:09:25 63° SW 22:10:22 75° WNW 22:16:32 10° NNE
USA 281 3.1 22:07:23 10° SSE 22:13:57 90° WSW 22:20:32 10° NNW
Spot 2 4.3 22:13:36 55° S 22:14:43 86° W 22:19:39 10° NNW
ARIANE 5 R/B 3.9 22:17:39 11° SSE 22:17:39 11° SSE 22:17:46 10° SE
Cosmos 1603 3.7 22:10:06 10° NNW 22:15:50 84° ENE 22:21:31 10° SSE
H-2A R/B 3.7 22:15:17 10° NNW 22:17:57 20° NW 22:17:57 20° NW
Atlas Centaur 2 4.3 22:16:11 10° NW 22:22:59 35° NNE 22:30:16 10° ENE
GPS 2-17 Rocket1 2.8 22:23:15 73° W 22:23:41 87° SSW 22:28:18 10° ESE
CZ-2D R/B 4.3 22:30:01 10° NW 22:30:51 12° NW 22:30:51 12° NW
H-2A R/B 1.8 22:29:33 10° N 22:33:32 67° WNW 22:34:05 58° WSW
Cosmos 1900 4.3 22:31:07 10° NW 22:35:50 52° WSW 22:40:35 10° S
Cosmos 1400 Rocket 2.9 22:33:59 10° NNW 22:37:12 49° WNW 22:37:12 49° WNW
Cosmos 2181 Rocket 3.9 22:32:30 13° S 22:38:03 88° E 22:44:10 10° N
GOES 2 Rocket 3.6 22:36:03 35° W 22:38:26 66° NNW 22:43:13 10° ENE
CZ-3 R/B 3.4 22:04:34 10° WNW 22:38:50 75° SSW 22:47:20 10° SE
Meteor 2-13 Rocket 4.5 22:37:13 27° SSW 22:40:35 59° W 22:46:37 10° N
Cosmos 2278 Rocket 2.2 22:38:44 22° SSW 22:42:28 88° ESE 22:48:09 10° NNE
Cosmos 1680 Rocket 4.1 22:43:14 32° W 22:44:10 35° WNW 22:48:53 10° N
Cosmos 962 Rocket 4.4 22:41:56 10° N 22:48:11 75° W 22:54:29 10° S
SL-24 R/B 4.4 22:46:50 10° N 22:50:45 46° WNW 22:52:43 28° SW
Meteosat 1 Rocket2 3.6 22:43:54 10° WNW 22:51:09 84° SSW 22:55:54 10° ESE
SL-16 R/B 2.8 22:45:52 10° SSE 22:52:06 75° ENE 22:58:19 10° N
OAO 3 Copernicus 4.2 22:49:48 30° SW 22:52:14 80° SSE 22:57:14 10° ENE
USA 238 DEB 3.4 22:48:15 16° SSW 22:52:55 78° ESE 22:58:59 10° NNE
USA 238 3.4 22:48:22 16° SSW 22:53:06 76° ESE 22:59:11 10° NNE
SL-24 DEB 4.0 22:49:02 10° S 22:53:33 74° W 22:58:01 10° N
Meteor 2-5 Rocket 3.7 22:50:54 17° SSW 22:55:07 59° W 23:00:33 10° N
ARGOS 4.4 22:54:31 10° NNW 22:58:32 22° WNW 22:59:52 20° W
Cosmos 1703 Rocket 3.5 22:54:31 10° S 22:58:50 84° E 23:03:07 10° N
Meteor 2-15 4.4 22:54:51 10° N 23:00:58 86° W 23:07:03 10° S
Cosmos 1867 4.1 22:56:32 10° NW 23:01:22 33° WSW 23:06:11 10° S
USA 59 Rocket 0.7 22:56:17 10° SSW 23:02:02 62° ESE 23:06:06 10° NE
Cosmos 1939 Rocket 2.6 23:05:10 10° N 23:08:56 82° WNW 23:12:43 10° SSW
CZ-2C R/B 2.6 23:05:30 10° N 23:09:46 42° WNW 23:13:34 13° SW
ATLAS 2AS CENTAUR R/B 3.4 23:05:29 10° NW 23:11:10 29° WSW 23:16:57 10° SSW
CZ-4C R/B 3.4 23:03:11 10° NNW 23:11:40 90° WSW 23:21:01 10° SSE
Meteor 1-24 Rocket 4.4 23:08:45 17° SW 23:12:06 31° W 23:16:55 10° NNW
Cosmos 2228 Rocket 4.2 23:10:26 19° WSW 23:12:14 24° W 23:15:49 10° NNW
deb Centaur AC-2 4.1 23:10:36 18° SW 23:13:44 73° SSE 23:18:37 10° ENE
Exosat Rocket 4.3 23:11:19 15° SW 23:15:10 34° WNW 23:19:41 10° N
Cosmos 1048 Rocket 4.2 23:14:10 11° SSW 23:18:55 47° WNW 23:23:48 10° N
NOSS 2-1 (C) 4.2 23:14:48 10° SSW 23:20:47 70° ESE 23:25:00 10° NNE
Meteor 2-15 Rocket 4.4 23:16:13 10° N 23:22:22 82° W 23:28:27 10° S
Cosmos 2341 Rocket 4.3 23:17:18 10° NNW 23:23:17 47° W 23:29:13 10° SSW
Cosmos 1869 4.3 23:25:02 10° NNE 23:28:16 42° E 23:31:31 10° SSE
SL-8 Rocket 4.5 23:23:50 10° NNW 23:29:27 38° W 23:35:03 10° SSW
Nadezhda 3 Rocket 4.1 23:26:14 10° SSW 23:32:18 59° W 23:38:20 10° N
Cosmos 2218 Rocket 4.4 23:27:41 10° NNW 23:33:42 45° W 23:39:40 10° SSW
Centaur AC-125 4.2 23:38:38 10° NW 23:40:09 13° N 23:41:25 10° NNE
SEDSat Delta rocket 4.2 23:40:47 10° W 23:44:54 26° SW 23:48:38 10° SSE
Cosmos 1833 Rocket 2.7 23:41:30 10° NNW 23:47:04 68° WSW 23:52:39 10° S
USA 267 4.1 23:41:39 10° NNE 23:47:27 35° NW 23:53:16 10° WSW
Cosmos 1371 Rocket 4.2 23:42:19 10° NNW 23:47:36 82° ENE 23:52:48 10° SSE
